�������l�o���
Date,Time,MP-1(��Sv/h),MP-2(��Sv/h),MP-3(��Sv/h),MP-4(��Sv/h),MP-5(��Sv/h),MP-6(��Sv/h),MP-7(��Sv/h),MP-8(��Sv/h),����,����(m/s),���J
2023/01/24,00:00,0.564,0.813,0.513,1.048,0.723,0.323,0.583,0.554,�k�k��,2.3,��
2023/01/24,00:10,0.566,0.815,0.513,1.048,0.723,0.324,0.584,0.555,�k��,4.9,��
2023/01/24,00:20,0.565,0.816,0.514,1.047,0.722,0.323,0.583,0.555,�k��,4.9,��
2023/01/24,00:30,0.564,0.815,0.514,1.047,0.724,0.324,0.585,0.555,�k��,4.4,��
2023/01/24,00:40,0.566,0.815,0.513,1.050,0.722,0.325,0.583,0.555,�k��,4.5,��
2023/01/24,00:50,0.565,0.816,0.513,1.048,0.721,0.324,0.584,0.554,�k��,2.7,��
2023/01/24,01:00,0.565,0.813,0.514,1.048,0.722,0.323,0.586,0.555,��,1.1,��
2023/01/24,01:10,0.565,0.816,0.513,1.048,0.722,0.323,0.583,0.554,��,1.2,��
2023/01/24,01:20,0.565,0.816,0.515,1.048,0.723,0.324,0.585,0.553,��,1.6,��
2023/01/24,01:30,0.566,0.816,0.513,1.050,0.724,0.324,0.585,0.554,�쐼,0.7,��
2023/01/24,01:40,0.564,0.815,0.513,1.048,0.724,0.324,0.585,0.556,���쓌,0.8,��
2023/01/24,01:50,0.566,0.816,0.513,1.047,0.722,0.324,0.584,0.555,���쓌,0.5,��
2023/01/24,02:00,0.567,0.816,0.515,1.047,0.723,0.325,0.583,0.556,-,CALM,��
2023/01/24,02:10,0.566,0.814,0.513,1.047,0.722,0.323,0.585,0.554,�k�k��,0.6,��
2023/01/24,02:20,0.565,0.816,0.512,1.049,0.723,0.325,0.584,0.555,-,CALM,��
2023/01/24,02:30,0.565,0.816,0.514,1.049,0.724,0.323,0.583,0.556,��쓌,0.9,��
2023/01/24,02:40,0.566,0.814,0.513,1.048,0.724,0.325,0.585,0.555,��,0.6,��
2023/01/24,02:50,0.566,0.814,0.514,1.048,0.724,0.323,0.583,0.556,���쐼,0.7,��
2023/01/24,03:00,0.567,0.816,0.512,1.050,0.724,0.324,0.585,0.555,��,0.7,��
2023/01/24,03:10,0.565,0.815,0.513,1.047,0.723,0.323,0.583,0.555,���k��,1.1,��
2023/01/24,03:20,0.564,0.816,0.515,1.048,0.723,0.324,0.584,0.556,�k�k��,1.6,��
2023/01/24,03:30,0.565,0.815,0.514,1.050,0.724,0.324,0.584,0.556,�k�k��,2.7,��
2023/01/24,03:40,0.566,0.814,0.513,1.051,0.722,0.324,0.584,0.556,�k��,4.5,��
2023/01/24,03:50,0.566,0.815,0.514,1.050,0.724,0.324,0.583,0.553,�k��,5.8,��
2023/01/24,04:00,0.564,0.814,0.514,1.049,0.721,0.324,0.585,0.555,�k��,4.4,��
2023/01/24,04:10,0.565,0.816,0.516,1.050,0.722,0.324,0.585,0.555,�k�k��,4.4,��
2023/01/24,04:20,0.565,0.816,0.513,1.051,0.723,0.326,0.586,0.557,�k��,4.6,��
2023/01/24,04:30,0.566,0.815,0.513,1.050,0.722,0.324,0.585,0.555,�k��,4.4,��
2023/01/24,04:40,0.566,0.818,0.514,1.049,0.724,0.324,0.585,0.556,�k��,4.4,��
2023/01/24,04:50,0.567,0.816,0.514,1.049,0.721,0.324,0.585,0.556,���k��,3.6,��
2023/01/24,05:00,0.565,0.814,0.512,1.051,0.722,0.325,0.588,0.557,�k��,3.2,��
2023/01/24,05:10,0.566,0.817,0.516,1.052,0.722,0.323,0.587,0.555,���k��,2.8,��
2023/01/24,05:20,0.565,0.818,0.514,1.049,0.724,0.323,0.584,0.556,��,3.2,��
2023/01/24,05:30,0.566,0.818,0.513,1.051,0.724,0.324,0.586,0.556,��,3.3,��
2023/01/24,05:40,0.566,0.815,0.515,1.049,0.723,0.323,0.586,0.555,��,2.7,��
2023/01/24,05:50,0.566,0.816,0.513,1.050,0.722,0.324,0.585,0.554,���k��,3.3,��
2023/01/24,06:00,0.565,0.816,0.514,1.051,0.724,0.324,0.586,0.556,���k��,3.4,��
2023/01/24,06:10,0.566,0.814,0.514,1.050,0.723,0.324,0.585,0.555,���k��,5.2,��
2023/01/24,06:20,0.566,0.817,0.512,1.051,0.723,0.324,0.585,0.556,���k��,5.5,��
2023/01/24,06:30,0.565,0.817,0.515,1.049,0.721,0.325,0.585,0.556,���k��,5.2,��
2023/01/24,06:40,0.567,0.816,0.514,1.050,0.722,0.325,0.586,0.557,���k��,4.9,��
2023/01/24,06:50,0.567,0.818,0.514,1.049,0.724,0.322,0.586,0.556,���k��,4.1,��
2023/01/24,07:00,0.566,0.816,0.515,1.051,0.725,0.326,0.585,0.556,���k��,3.5,��
2023/01/24,07:10,0.566,0.815,0.515,1.051,0.724,0.325,0.585,0.554,���k��,4.4,��
2023/01/24,07:20,0.567,0.816,0.514,1.049,0.722,0.325,0.586,0.558,���k��,5.2,��
2023/01/24,07:30,0.567,0.816,0.515,1.050,0.724,0.324,0.586,0.556,���k��,6.4,��
2023/01/24,07:40,0.567,0.816,0.513,1.050,0.725,0.325,0.587,0.556,�k��,3.4,��
2023/01/24,07:50,0.565,0.816,0.514,1.052,0.722,0.324,0.586,0.555,�k��,3.8,��
2023/01/24,08:00,0.568,0.814,0.514,1.049,0.722,0.324,0.586,0.557,�k��,3.8,��
2023/01/24,08:10,0.565,0.817,0.514,1.049,0.723,0.325,0.586,0.555,���k��,3.8,��
2023/01/24,08:20,0.568,0.816,0.516,1.052,0.723,0.326,0.586,0.556,�k��,3.5,��
2023/01/24,08:30,0.567,0.814,0.515,1.050,0.723,0.324,0.587,0.557,�k��,3.8,��
2023/01/24,08:40,0.569,0.815,0.516,1.052,0.725,0.324,0.586,0.555,�k��,3.1,��
2023/01/24,08:50,0.570,0.815,0.515,1.049,0.723,0.326,0.587,0.557,�k�k��,2.7,��
2023/01/24,09:00,0.569,0.815,0.515,1.050,0.723,0.325,0.586,0.557,�k��,1.8,��
2023/01/24,09:10,0.570,0.815,0.513,1.051,0.723,0.326,0.587,0.556,�k��,2.5,��
2023/01/24,09:20,0.568,0.816,0.513,1.052,0.723,0.325,0.586,0.557,�k�k��,0.9,��
2023/01/24,09:30,0.568,0.817,0.516,1.052,0.725,0.325,0.586,0.556,�k��,1.2,��
2023/01/24,09:40,0.570,0.816,0.516,1.053,0.723,0.325,0.585,0.557,��,0.7,��
2023/01/24,09:50,0.568,0.815,0.514,1.051,0.725,0.325,0.588,0.556,-,CALM,��
2023/01/24,10:00,0.569,0.817,0.515,1.051,0.723,0.326,0.587,0.556,���쐼,1.2,��
2023/01/24,10:10,0.568,0.817,0.516,1.052,0.725,0.326,0.587,0.558,���k��,1.5,��
2023/01/24,10:20,0.568,0.818,0.515,1.050,0.724,0.326,0.585,0.558,��,2.8,��
2023/01/24,10:30,0.568,0.815,0.514,1.053,0.726,0.325,0.584,0.557,���k��,2.4,��
2023/01/24,10:40,0.569,0.819,0.516,1.054,0.725,0.326,0.586,0.557,���k��,2.6,�L
2023/01/24,10:50,0.571,0.816,0.517,1.051,0.727,0.328,0.587,0.558,��,2.5,�L
2023/01/24,11:00,0.572,0.820,0.517,1.056,0.727,0.328,0.588,0.557,�쐼,2.2,�L
2023/01/24,11:10,0.571,0.822,0.519,1.054,0.727,0.329,0.586,0.558,��,3.0,�L
2023/01/24,11:20,0.573,0.818,0.520,1.055,0.728,0.330,0.589,0.558,��쓌,3.8,�L
2023/01/24,11:30,0.574,0.816,0.520,1.056,0.728,0.329,0.589,0.558,��쓌,3.4,�L
2023/01/24,11:40,0.575,0.820,0.519,1.056,0.730,0.330,0.589,0.559,��쓌,3.9,�L
2023/01/24,11:50,0.575,0.819,0.520,1.057,0.729,0.331,0.589,0.559,��쓌,2.3,�L
2023/01/24,12:00,0.575,0.818,0.519,1.057,0.729,0.330,0.589,0.559,��쓌,3.0,�L
2023/01/24,12:10,0.573,0.819,0.521,1.056,0.729,0.329,0.589,0.560,��쓌,2.8,��
2023/01/24,12:20,0.572,0.822,0.519,1.055,0.727,0.329,0.589,0.559,��,3.2,��
2023/01/24,12:30,0.573,0.821,0.519,1.053,0.728,0.328,0.589,0.558,��쓌,3.8,��
2023/01/24,12:40,0.572,0.822,0.520,1.053,0.728,0.329,0.589,0.558,��쓌,4.4,��
2023/01/24,12:50,0.572,0.822,0.518,1.054,0.727,0.327,0.587,0.557,��쓌,3.5,��
2023/01/24,13:00,0.572,0.821,0.520,1.053,0.729,0.328,0.588,0.558,��쓌,4.5,��
2023/01/24,13:10,0.573,0.820,0.519,1.053,0.728,0.326,0.588,0.559,��쓌,4.1,��
2023/01/24,13:20,0.573,0.819,0.518,1.053,0.727,0.329,0.589,0.559,��쓌,4.9,��
2023/01/24,13:30,0.571,0.821,0.518,1.052,0.725,0.328,0.587,0.559,��쓌,3.5,��
2023/01/24,13:40,0.572,0.818,0.517,1.054,0.725,0.327,0.589,0.557,��쓌,3.3,��
2023/01/24,13:50,0.571,0.817,0.517,1.053,0.724,0.327,0.587,0.558,��쓌,4.9,��
2023/01/24,14:00,0.571,0.817,0.517,1.052,0.725,0.326,0.588,0.556,��쓌,3.8,��
2023/01/24,14:10,0.571,0.814,0.516,1.053,0.725,0.326,0.587,0.555,��쓌,3.0,��
2023/01/24,14:20,0.569,0.818,0.517,1.052,0.725,0.326,0.586,0.556,��쓌,3.4,��
2023/01/24,14:30,0.571,0.819,0.516,1.052,0.728,0.326,0.588,0.558,��쓌,2.5,��
2023/01/24,14:40,0.571,0.818,0.516,1.052,0.727,0.327,0.588,0.558,��쓌,2.9,��
2023/01/24,14:50,0.570,0.820,0.518,1.051,0.729,0.329,0.587,0.559,�k�k��,1.1,��
2023/01/24,15:00,0.571,0.819,0.517,1.052,0.728,0.330,0.587,0.560,�k,12.1,�L
2023/01/24,15:10,0.570,0.816,0.518,1.049,0.728,0.326,0.586,0.558,�k�k��,9.4,�L
2023/01/24,15:20,0.571,0.818,0.516,1.048,0.726,0.327,0.585,0.557,�k,9.1,�L
2023/01/24,15:30,0.572,0.816,0.517,1.047,0.727,0.325,0.586,0.557,�k,10.4,�L
2023/01/24,15:40,0.570,0.817,0.516,1.049,0.726,0.325,0.587,0.558,�k,9.1,��
2023/01/24,15:50,0.569,0.814,0.517,1.052,0.724,0.324,0.588,0.558,�k,8.0,��
2023/01/24,16:00,0.570,0.817,0.516,1.049,0.726,0.327,0.588,0.558,�k,8.0,��
2023/01/24,16:10,0.569,0.815,0.517,1.048,0.725,0.325,0.588,0.556,�k,8.5,��
2023/01/24,16:20,0.568,0.814,0.516,1.048,0.725,0.325,0.588,0.557,�k,7.5,��
2023/01/24,16:30,0.566,0.814,0.515,1.050,0.722,0.327,0.587,0.559,�k�k��,8.5,��
2023/01/24,16:40,0.567,0.812,0.515,1.049,0.725,0.326,0.589,0.558,�k�k��,8.3,��
2023/01/24,16:50,0.566,0.816,0.515,1.048,0.724,0.326,0.588,0.556,�k�k��,8.8,��
2023/01/24,17:00,0.564,0.815,0.513,1.049,0.724,0.326,0.587,0.555,�k�k��,7.1,��
2023/01/24,17:10,0.563,0.814,0.514,1.051,0.722,0.323,0.587,0.557,�k�k��,9.7,��
2023/01/24,17:20,0.565,0.813,0.513,1.047,0.723,0.323,0.586,0.558,�k�k��,9.4,��
2023/01/24,17:30,0.565,0.813,0.513,1.048,0.723,0.325,0.588,0.557,�k�k��,7.7,��
2023/01/24,17:40,0.564,0.813,0.512,1.048,0.724,0.324,0.586,0.557,�k�k��,8.0,��
2023/01/24,17:50,0.564,0.813,0.515,1.047,0.725,0.325,0.587,0.557,�k��,12.4,�L
2023/01/24,18:00,0.564,0.817,0.514,1.051,0.726,0.325,0.588,0.557,�k��,12.4,�L
2023/01/24,18:10,0.566,0.815,0.514,1.053,0.725,0.325,0.587,0.556,�k��,12.7,��
2023/01/24,18:20,0.567,0.816,0.517,1.052,0.723,0.325,0.585,0.557,�k�k��,14.1,�L
2023/01/24,18:30,0.568,0.818,0.514,1.050,0.722,0.326,0.585,0.558,�k�k��,13.8,��
2023/01/24,18:40,0.566,0.816,0.515,1.050,0.724,0.325,0.585,0.559,�k�k��,8.9,��
2023/01/24,18:50,0.565,0.816,0.514,1.051,0.722,0.325,0.583,0.558,�k�k��,11.5,��
2023/01/24,19:00,0.563,0.815,0.513,1.051,0.721,0.324,0.585,0.558,�k,10.1,��
2023/01/24,19:10,0.563,0.814,0.512,1.049,0.723,0.324,0.584,0.557,�k,8.2,��
2023/01/24,19:20,0.563,0.815,0.512,1.048,0.720,0.323,0.583,0.557,�k�k��,10.2,��
2023/01/24,19:30,0.561,0.812,0.512,1.047,0.721,0.324,0.581,0.557,�k�k��,8.9,��
2023/01/24,19:40,0.561,0.814,0.511,1.049,0.720,0.323,0.586,0.556,�k�k��,11.4,��
2023/01/24,19:50,0.560,0.811,0.512,1.045,0.720,0.323,0.585,0.557,�k��,13.0,��
2023/01/24,20:00,0.560,0.812,0.511,1.049,0.720,0.322,0.585,0.558,�k��,14.0,��
2023/01/24,20:10,0.561,0.810,0.513,1.046,0.720,0.324,0.583,0.556,�k��,9.4,��
2023/01/24,20:20,0.560,0.811,0.511,1.048,0.720,0.324,0.582,0.556,�k��,11.9,��
2023/01/24,20:30,0.561,0.811,0.509,1.047,0.719,0.322,0.584,0.557,�k��,12.4,��
2023/01/24,20:40,0.559,0.811,0.510,1.047,0.720,0.322,0.583,0.557,�k��,9.6,��
2023/01/24,20:50,0.560,0.811,0.513,1.048,0.722,0.322,0.582,0.557,�k��,12.8,��
2023/01/24,21:00,0.559,0.810,0.511,1.046,0.719,0.322,0.583,0.557,�k�k��,10.8,��
2023/01/24,21:10,0.560,0.811,0.511,1.047,0.720,0.321,0.583,0.557,�k��,14.8,��
2023/01/24,21:20,0.559,0.810,0.511,1.046,0.720,0.321,0.583,0.556,�k��,11.2,��
2023/01/24,21:30,0.558,0.811,0.510,1.048,0.720,0.321,0.583,0.556,�k��,11.3,��
2023/01/24,21:40,0.558,0.810,0.510,1.046,0.718,0.322,0.584,0.556,�k�k��,9.1,��
2023/01/24,21:50,0.559,0.811,0.510,1.046,0.720,0.320,0.582,0.558,�k��,12.1,��
2023/01/24,22:00,0.559,0.811,0.509,1.046,0.719,0.322,0.583,0.556,�k�k��,10.5,��
2023/01/24,22:10,0.560,0.811,0.511,1.046,0.719,0.322,0.584,0.556,�k��,10.1,��
2023/01/24,22:20,0.559,0.811,0.511,1.046,0.719,0.323,0.581,0.557,�k��,12.9,��
2023/01/24,22:30,0.561,0.811,0.510,1.047,0.719,0.323,0.582,0.556,�k��,12.4,��
2023/01/24,22:40,0.559,0.811,0.511,1.050,0.721,0.323,0.584,0.558,�k��,14.5,��
2023/01/24,22:50,0.560,0.811,0.510,1.049,0.719,0.322,0.583,0.558,�k��,13.0,��
2023/01/24,23:00,0.559,0.810,0.511,1.050,0.720,0.321,0.581,0.558,�k��,11.1,��
2023/01/24,23:10,0.561,0.810,0.511,1.048,0.720,0.321,0.581,0.557,�k��,7.5,��
2023/01/24,23:20,0.558,0.811,0.512,1.050,0.720,0.322,0.582,0.556,�k��,7.7,��
2023/01/24,23:30,0.560,0.813,0.511,1.049,0.721,0.323,0.583,0.556,�k��,10.4,��
2023/01/24,23:40,0.561,0.816,0.512,1.049,0.719,0.323,0.582,0.557,�k��,9.3,��
2023/01/24,23:50,0.562,0.815,0.512,1.048,0.718,0.323,0.583,0.557,�k��,10.8,��
